This is the latest recevied weather packets stored in our database for station/object PA3FNT-13. If no packets are shown the sender has not sent any weather packets the latest 10 day(s).
| Time | Temp. | Humidity | Pressure | Rain* | Wind** | Luminosity | Snow |
|---|---|---|---|---|---|---|---|
| 1777649877 | 29.44° C | 19% | 1022.5 hPa | - | - | - | - |
| 1777648977 | 28.89° C | 19% | 1022.6 hPa | - | - | - | - |
| 1777648077 | 28.89° C | 19% | 1022.9 hPa | - | - | - | - |
| 1777647212 | 28.89° C | 19% | 1023 hPa | - | - | - | - |
| 1777647177 | 28.89° C | 19% | 1023 hPa | - | - | - | - |
| 1777646276 | 28.89° C | 19% | 1023.1 hPa | - | - | - | - |
| 1777645376 | 29.44° C | 18% | 1023.1 hPa | - | - | - | - |
| 1777644476 | 28.89° C | 18% | 1023.4 hPa | - | - | - | - |
| 1777643576 | 29.44° C | 18% | 1023.5 hPa | - | - | - | - |
| 1777642676 | 29.44° C | 18% | 1023.7 hPa | - | - | - | - |
| 1777641775 | 29.44° C | 18% | 1023.8 hPa | - | - | - | - |
| 1777640875 | 29.44° C | 18% | 1024.1 hPa | - | - | - | - |
| 1777639975 | 29.44° C | 18% | 1024.3 hPa | - | - | - | - |
| 1777639075 | 29.44° C | 19% | 1024.6 hPa | - | - | - | - |
| 1777638175 | 30° C | 19% | 1024.7 hPa | - | - | - | - |
| 1777637275 | 30.56° C | 18% | 1024.9 hPa | - | - | - | - |
| 1777636374 | 30° C | 19% | 1025.1 hPa | - | - | - | - |
| 1777635474 | 29.44° C | 19% | 1025.3 hPa | - | - | - | - |
| 1777634574 | 30° C | 18% | 1025.5 hPa | - | - | - | - |
| 1777633674 | 30° C | 18% | 1025.6 hPa | - | - | - | - |
| 1777632774 | 28.89° C | 19% | 1025.7 hPa | - | - | - | - |
| 1777631910 | 28.89° C | 19% | 1025.9 hPa | - | - | - | - |
| 1777631874 | 28.89° C | 19% | 1025.9 hPa | - | - | - | - |
| 1777630973 | 28.33° C | 19% | 1026.1 hPa | - | - | - | - |
| 1777630108 | 28.33° C | 19% | 1026.2 hPa | - | - | - | - |
* Rain since midnight (hover to see other rain measurements)
** Current wind speed in m/s (hover to see current wind gust speed)